Temp
85 93 97 98 82 86 75 79 90 86 86 92 85 76 72 71 80 65 89 88 91 89 86 86 83 83 83 82 82 83 83 83 83 83 83 83 83 84 84 84 84 84 85 85 85 85 85 84 84
95 100 102 93 83 75 75 86 82 87 91 95 92 88 83 76 85 84 85 91 92 92 90 87 82 83 83 83 82 83 83 84 83 83 83 84 84 84 84 85 84 84 85 85 85 85 85 85 84
93 99 91 90 84 76 76 86 88 92 95 93 88 91 87 81 88 85 91 92 92 88 87 84 83 83 83 83 83 83 83 84 84 84 84 84 84 84 84 84 84 85 85 85 85 85 85 85 85
102 95 96 87 81 86 86 90 92 91 93 92 90 83 91 92 88 90 91 91 89 89 88 84 84 84 84 84 84 84 84 84 84 84 84 84 85 85 85 85 85 85 85 85 85 85 85 85 85
89 79 86 84 84 90 94 95 95 91 91 90 89 82 85 90 93 93 92 93 90 89 88 86 84 84 84 84 84 84 84 84 84 84 84 85 85 85 85 85 85 85 85 85 85 85 85 85 85
82 88 83 79 84 87 95 98 96 93 90 89 85 83 84 95 93 94 94 92 95 91 89 87 84 84 84 84 84 84 84 84 84 84 85 85 85 85 85 85 85 85 86 86 85 85 85 84 84
81 81 83 81 77 74 76 99 93 91 89 87 91 80 87 92 96 97 96 93 95 93 90 87 86 85 84 84 84 84 84 84 84 85 85 85 85 85 85 85 85 86 85 86 85 85 84 84 84
79 82 85 84 81 76 83 97 98 94 90 98 94 80 81 92 99 97 96 90 92 93 90 87 86 87 85 85 84 84 84 84 85 85 85 85 85 85 85 84 84 86 86 86 86 85 85 84 84
95 83 85 86 88 87 97 93 99 101 94 95 96 91 93 97 100 95 89 90 88 89 91 90 89 88 85 86 86 84 85 85 85 85 85 85 86 81 73 78 81 86 85 85 85 85 84 84 84
99 88 89 94 98 81 75 87 95 93 92 92 91 94 95 96 96 92 90 89 90 88 89 92 90 90 88 91 84 85 87 86 85 85 84 85 86 83 80 78 81 85 86 85 85 84 84 84 84
100 92 98 98 99 87 80 86 80 73 86 91 86 89 92 93 93 93 91 91 91 90 93 93 88 89 88 80 87 87 87 88 87 86 86 84 85 76 87 77 79 84 85 86 86 86 86 83 84
95 100 100 100 95 94 95 91 78 74 75 95 93 93 92 91 91 92 93 92 91 92 92 87 85 84 84 84 90 88 89 87 83 85 86 85 85 85 86 86 86 83 83 84 84 84 83 85 86
96 98 100 100 99 98 97 91 83 82 91 96 95 93 91 91 92 93 94 94 92 91 93 91 85 85 88 83 87 84 84 87 89 86 85 87 85 83 84 85 85 84 84 83 83 84 84 83 85
100 99 99 101 99 98 93 91 90 90 94 92 92 91 92 92 93 92 93 91 91 91 92 93 87 87 88 86 85 85 85 84 89 86 84 87 84 81 83 81 84 83 82 84 80 80 81 81 83
100 93 96 97 97 94 96 86 84 91 93 90 90 91 92 93 94 91 93 91 91 91 90 89 88 89 85 85 86 87 87 91 89 85 87 87 84 85 83 81 80 81 82 83 82 81 81 82 84
94 94 85 94 92 90 91 77 87 93 91 89 91 92 92 92 93 93 94 93 91 89 84 85 90 88 86 85 85 86 87 87 87 86 84 85 87 86 81 80 81 82 82 81 79 78 77 79 80
91 82 83 86 92 90 87 81 89 95 93 90 92 92 92 91 92 92 92 91 89 86 87 86 86 87 85 84 85 85 87 87 85 83 85 84 87 86 81 81 81 81 80 80 80 80 77 75 76
83 82 85 84 90 89 86 84 90 94 93 91 92 91 91 92 92 93 91 90 90 88 84 84 85 89 84 82 84 85 83 84 87 82 83 84 83 85 81 79 78 78 77 76 75 75 75 76 77
93 89 84 89 90 86 85 84 88 93 93 90 91 90 91 92 94 95 94 93 93 92 88 84 83 88 87 83 82 82 82 82 84 85 86 85 85 83 82 79 79 79 77 78 78 78 76 76 77
93 89 87 92 95 91 83 82 89 92 92 92 91 90 92 93 92 93 93 95 94 91 88 88 86 85 85 82 84 84 82 82 82 84 84 85 84 82 84 83 81 80 80 78 79 78 75 75 73
90 87 88 88 92 93 89 80 74 89 94 94 95 94 94 93 91 91 91 92 94 91 89 88 86 85 86 86 84 81 83 84 83 84 80 82 84 84 83 83 81 80 79 78 76 76 74 71 74
84 94 92 91 86 77 89 72 74 83 88 91 93 94 95 94 94 93 92 92 93 91 91 87 88 87 86 87 86 82 81 78 82 83 81 81 84 83 83 82 81 79 78 76 76 76 74 72 70
87 96 92 91 86 84 84 76 76 86 83 87 92 94 96 96 96 94 94 93 94 93 92 89 87 86 85 84 85 82 81 80 81 81 81 81 79 81 83 83 80 78 78 76 76 75 74 72 70
97 92 91 90 86 74 81 80 73 75 83 87 91 95 96 97 97 97 96 95 94 94 92 89 85 83 84 84 84 83 83 81 79 78 78 79 80 81 80 80 79 78 77 76 76 75 75 73 72
94 86 73 70 71 70 85 80 80 87 91 90 77 76 97 98 98 96 94 93 91 90 90 87 83 81 82 83 83 84 83 82 81 79 79 79 78 80 77 79 79 77 77 77 76 74 73 73 72
88 86 75 63 68 74 85 74 80 94 96 94 94 93 98 97 97 95 94 92 90 90 88 85 82 80 82 83 82 82 83 81 80 80 79 78 78 79 82 80 80 78 78 78 77 75 75 74 72
87 81 92 80 83 76 80 84 91 94 94 95 96 98 95 96 98 97 97 91 90 89 86 84 81 80 81 82 80 81 81 81 80 81 81 79 81 80 78 80 79 78 77 77 76 75 74 75 73
91 94 79 81 66 65 76 78 78 83 87 92 93 95 97 97 97 98 97 91 90 90 88 85 83 81 81 82 81 81 80 81 81 81 79 79 79 80 79 79 78 77 77 77 75 74 74 72 73
88 85 86 86 81 70 68 70 87 86 90 91 94 96 97 98 95 97 97 91 90 91 88 86 84 82 82 82 82 82 82 82 80 80 79 80 80 80 79 78 77 76 76 76 75 74 73 71 72
94 87 86 75 72 78 76 75 94 93 93 94 94 96 97 98 97 97 97 93 90 89 89 87 86 85 84 83 82 81 81 81 81 80 80 81 79 79 78 77 76 75 76 75 74 73 74 72 71
MSLP
1004.04 1003.39 1002.83 1001.66 1001.54 1000.26 1001.14 1001.06 1000.73 1001.61 1002.41 1003.00 1005.31 1006.07 1007.30 1005.85 1006.10 1009.86 1011.44 1011.80 1012.17 1012.80 1013.55 1014.00 1014.37 1014.55 1014.92 1015.25 1015.45 1015.61 1016.01 1016.12 1016.47 1016.70 1016.65 1016.83 1017.14 1017.31 1017.46 1017.57 1017.65 1017.78 1017.95 1018.13 1018.22 1018.15 1018.18 1018.18 1018.23
1003.56 1002.02 1000.86 1000.13 998.87 999.48 1000.78 1001.22 1001.41 1002.00 1002.27 1002.68 1003.90 1005.24 1006.02 1007.27 1007.54 1009.67 1011.33 1011.91 1012.17 1012.43 1013.27 1014.15 1014.69 1014.90 1015.15 1015.50 1015.75 1015.93 1016.21 1016.48 1016.75 1016.93 1016.91 1017.22 1017.49 1017.70 1017.83 1017.92 1018.04 1018.23 1018.34 1018.54 1018.53 1018.45 1018.29 1018.16 1018.27
1003.44 1002.30 1000.83 998.37 998.59 999.25 1000.28 1000.91 1001.14 1001.44 1002.09 1002.84 1004.21 1005.13 1005.98 1007.48 1008.67 1010.16 1011.31 1012.00 1012.27 1012.86 1013.70 1014.49 1014.88 1015.14 1015.54 1015.70 1015.94 1016.18 1016.51 1016.75 1017.00 1017.17 1017.30 1017.62 1017.77 1017.95 1018.14 1018.27 1018.40 1018.56 1018.64 1018.69 1018.63 1018.58 1018.45 1018.29 1018.33
1001.89 1000.80 999.67 997.84 998.77 999.71 1000.17 1000.76 1001.36 1001.73 1002.74 1003.95 1004.78 1005.72 1006.61 1008.08 1009.44 1010.71 1011.75 1012.38 1012.95 1013.22 1014.03 1014.81 1015.08 1015.32 1015.66 1015.98 1016.16 1016.49 1016.78 1017.01 1017.22 1017.38 1017.59 1017.87 1017.98 1018.15 1018.33 1018.46 1018.55 1018.68 1018.73 1018.77 1018.71 1018.59 1018.45 1018.33 1018.41
1005.00 1003.36 999.78 999.13 999.34 999.69 1000.07 1000.46 1001.15 1001.71 1002.83 1003.97 1005.43 1006.44 1007.13 1008.70 1010.00 1010.81 1011.72 1012.22 1012.90 1013.59 1014.29 1014.93 1015.35 1015.57 1015.84 1016.19 1016.42 1016.72 1016.89 1017.17 1017.42 1017.62 1017.81 1017.95 1018.13 1018.40 1018.58 1018.72 1018.78 1018.83 1018.77 1018.81 1018.68 1018.52 1018.38 1018.30 1018.42
1003.61 1003.41 1000.16 999.63 999.98 1000.82 1000.35 1000.78 1001.04 1001.90 1003.41 1004.82 1005.85 1006.70 1007.77 1008.70 1009.66 1010.52 1011.40 1012.07 1012.38 1013.31 1014.31 1015.02 1015.65 1015.91 1016.22 1016.51 1016.68 1016.92 1017.18 1017.41 1017.66 1017.83 1017.95 1018.13 1018.37 1018.56 1018.60 1018.62 1018.63 1018.65 1018.82 1018.84 1018.74 1018.53 1018.38 1018.26 1018.37
1003.96 1003.00 1000.21 1000.39 1001.22 1002.59 1002.17 1000.96 1001.68 1002.63 1003.74 1004.78 1006.06 1006.95 1008.07 1008.52 1009.39 1009.90 1010.70 1011.88 1012.42 1013.20 1014.20 1015.03 1015.50 1015.87 1016.27 1016.54 1016.82 1017.04 1017.25 1017.53 1017.74 1017.93 1018.15 1018.32 1018.44 1018.36 1018.50 1018.65 1018.55 1018.52 1018.54 1018.77 1018.72 1018.53 1018.35 1018.21 1018.21
1003.45 1002.79 1000.25 1000.21 1000.84 1002.27 1002.30 1001.10 1001.88 1002.71 1003.60 1004.62 1005.74 1007.04 1007.79 1008.46 1008.85 1010.04 1011.10 1012.22 1012.74 1013.39 1014.05 1014.77 1015.45 1015.81 1016.21 1016.60 1016.85 1017.14 1017.39 1017.61 1017.82 1018.02 1018.22 1018.40 1018.21 1018.24 1019.28 1019.42 1018.78 1018.24 1018.30 1018.45 1018.50 1018.46 1018.20 1018.03 1017.95
1000.13 1001.01 999.20 999.63 999.53 1001.11 1001.34 1001.86 1002.47 1003.14 1003.94 1004.64 1005.13 1006.41 1007.60 1008.54 1008.86 1010.07 1011.58 1012.32 1012.90 1013.64 1014.18 1014.65 1015.09 1015.52 1015.93 1016.34 1016.87 1017.24 1017.51 1017.71 1017.84 1018.00 1018.15 1018.20 1017.77 1017.84 1018.78 1018.87 1018.94 1017.99 1018.06 1018.15 1018.29 1018.23 1018.03 1017.97 1017.75
997.79 999.31 998.41 998.83 998.79 1001.43 1002.66 1002.86 1003.30 1004.08 1004.38 1004.73 1005.85 1007.04 1008.06 1008.54 1008.97 1009.90 1010.98 1011.75 1012.28 1013.41 1014.18 1014.44 1014.84 1015.22 1015.64 1015.66 1016.70 1016.92 1017.19 1017.41 1017.59 1017.56 1017.80 1017.76 1017.34 1017.76 1018.67 1018.89 1018.59 1017.96 1017.91 1018.05 1018.12 1018.06 1017.73 1017.72 1017.45
996.87 996.92 997.70 998.44 999.17 1000.51 1002.30 1003.98 1004.61 1007.49 1005.00 1005.30 1006.19 1007.30 1008.30 1008.85 1009.36 1009.90 1010.75 1011.57 1011.87 1012.82 1013.16 1013.93 1014.68 1014.96 1015.41 1016.18 1016.12 1016.22 1016.45 1016.55 1016.92 1017.05 1017.21 1017.54 1017.55 1017.86 1017.45 1017.77 1017.62 1017.57 1017.49 1017.61 1017.45 1017.46 1017.52 1017.48 1017.20
996.85 997.10 997.69 998.44 999.73 1000.63 1001.39 1003.58 1006.37 1007.08 1006.85 1005.80 1006.75 1007.66 1008.45 1009.06 1009.61 1010.18 1010.62 1011.47 1012.09 1012.59 1012.93 1014.02 1014.62 1015.26 1015.45 1015.73 1015.58 1015.79 1015.87 1016.04 1016.52 1016.65 1016.92 1017.10 1017.27 1017.46 1017.33 1017.35 1017.36 1017.31 1017.50 1017.32 1017.40 1017.34 1017.31 1017.07 1016.80
997.07 997.53 998.24 998.90 999.73 1000.66 1002.01 1003.54 1005.71 1006.52 1006.29 1006.47 1007.08 1007.92 1008.57 1009.07 1009.74 1010.31 1010.82 1011.62 1012.23 1012.80 1013.01 1013.74 1014.61 1014.98 1015.26 1015.56 1015.62 1015.80 1015.82 1015.89 1015.94 1016.39 1016.63 1016.67 1016.99 1017.30 1017.39 1017.37 1017.45 1017.44 1017.35 1017.39 1017.22 1017.08 1017.17 1017.13 1016.92
997.29 997.86 998.51 998.88 999.87 1000.77 1002.00 1003.43 1004.82 1005.75 1006.26 1006.82 1007.55 1008.03 1008.51 1008.96 1009.69 1010.38 1010.91 1011.71 1012.43 1012.95 1013.19 1013.75 1014.54 1014.98 1015.35 1015.81 1015.87 1016.00 1015.74 1016.00 1015.72 1016.10 1016.30 1016.43 1016.69 1017.12 1017.10 1017.42 1017.34 1017.28 1017.34 1017.08 1017.31 1017.18 1017.28 1017.20 1016.91
997.89 998.26 998.69 999.39 1000.22 1001.10 1001.89 1003.41 1004.79 1005.78 1006.44 1006.91 1007.33 1007.69 1008.15 1008.78 1009.50 1010.25 1010.88 1011.58 1012.35 1012.91 1013.11 1013.67 1014.22 1014.76 1015.50 1015.90 1015.85 1015.83 1015.83 1015.58 1015.60 1015.79 1015.91 1016.13 1016.49 1016.48 1016.87 1017.14 1017.36 1017.27 1017.13 1016.97 1017.08 1017.09 1017.12 1017.12 1016.70
997.98 998.34 998.65 999.40 1000.66 1002.35 1002.52 1003.80 1004.83 1005.41 1005.86 1006.37 1006.76 1007.10 1007.86 1008.69 1009.35 1010.20 1010.81 1011.50 1012.17 1012.66 1013.34 1013.92 1014.25 1014.71 1015.18 1015.57 1015.77 1015.96 1015.95 1015.73 1015.53 1015.73 1015.89 1015.78 1015.78 1016.00 1016.61 1016.99 1017.10 1017.06 1017.00 1017.20 1017.20 1017.22 1017.18 1017.02 1016.78
997.85 997.57 998.76 999.70 1000.52 1001.65 1003.02 1003.36 1004.23 1004.59 1005.08 1005.66 1006.01 1006.67 1007.46 1008.34 1008.91 1009.86 1010.93 1011.61 1012.19 1012.78 1013.35 1013.80 1014.16 1014.55 1015.09 1015.44 1015.43 1015.71 1015.52 1015.61 1015.69 1015.76 1015.66 1015.66 1015.78 1016.16 1016.53 1016.87 1016.80 1016.93 1017.06 1017.03 1017.12 1017.08 1017.15 1017.21 1017.15
997.00 997.82 997.99 999.01 1000.06 1001.22 1001.98 1002.66 1003.51 1003.67 1004.27 1005.17 1005.68 1006.44 1007.01 1007.68 1008.38 1009.42 1010.51 1011.30 1012.00 1012.54 1013.17 1013.63 1013.97 1014.12 1014.83 1015.22 1015.62 1015.60 1015.69 1015.66 1015.52 1015.49 1015.69 1015.74 1015.96 1016.13 1016.54 1016.68 1016.85 1016.95 1017.13 1017.08 1016.92 1017.09 1017.12 1017.13 1017.03
996.27 996.60 998.08 998.61 999.59 1000.45 1001.42 1002.06 1002.57 1002.84 1003.59 1004.57 1005.18 1006.10 1006.53 1007.02 1007.77 1008.74 1009.58 1010.68 1011.14 1011.75 1012.73 1013.50 1014.02 1014.23 1014.73 1015.38 1015.70 1015.72 1015.81 1015.71 1015.52 1015.33 1015.38 1015.62 1015.74 1015.95 1016.27 1016.42 1016.51 1016.45 1016.76 1016.70 1016.76 1016.74 1016.89 1016.92 1016.79
995.93 996.15 996.67 997.64 998.16 999.10 1001.22 1002.00 1002.17 1002.44 1002.67 1003.61 1004.45 1005.38 1005.82 1006.43 1007.41 1008.44 1009.19 1009.93 1010.63 1011.39 1012.30 1012.99 1013.68 1014.36 1014.84 1015.25 1015.42 1015.48 1015.55 1015.28 1015.20 1015.09 1014.95 1015.20 1015.51 1015.70 1015.81 1015.95 1016.23 1016.27 1016.39 1016.37 1016.44 1016.37 1016.69 1016.90 1016.88
996.00 996.31 996.32 996.78 997.69 998.76 999.78 1001.23 1003.01 1002.85 1002.44 1002.66 1003.51 1004.52 1005.16 1005.87 1007.09 1008.13 1008.85 1009.54 1010.17 1011.08 1011.93 1012.70 1013.38 1014.14 1014.55 1014.86 1015.08 1015.36 1015.19 1015.10 1014.90 1014.99 1015.22 1015.63 1015.69 1015.72 1015.78 1015.86 1016.06 1016.27 1016.39 1016.41 1016.41 1016.51 1016.81 1016.98 1016.80
996.17 996.65 996.59 996.63 997.33 998.04 999.28 1000.05 1001.60 1002.05 1001.84 1002.02 1002.47 1003.31 1004.19 1005.14 1006.35 1007.57 1008.47 1009.10 1009.71 1010.74 1011.57 1012.37 1013.00 1013.57 1014.10 1014.35 1014.55 1014.84 1014.99 1015.08 1015.12 1015.08 1015.43 1015.54 1015.48 1015.77 1015.93 1015.98 1016.01 1016.17 1016.47 1016.48 1016.49 1016.52 1016.79 1016.87 1016.86
996.26 996.36 996.74 996.68 997.20 997.90 998.34 999.48 999.66 1000.97 1000.99 1001.27 1001.75 1002.35 1003.10 1004.13 1005.24 1006.39 1007.52 1008.48 1009.17 1010.23 1011.19 1012.06 1012.81 1013.41 1013.90 1014.34 1014.62 1014.81 1015.06 1015.22 1015.16 1015.22 1015.50 1015.82 1015.73 1015.75 1015.63 1015.72 1016.03 1016.39 1016.51 1016.48 1016.46 1016.50 1016.64 1016.63 1016.70
996.28 996.51 996.37 997.08 997.56 997.41 997.64 998.27 999.61 1000.69 1000.37 1000.92 1001.65 1002.07 1002.68 1003.01 1004.14 1005.23 1006.42 1007.65 1008.64 1009.76 1010.91 1011.82 1012.65 1013.38 1013.87 1014.25 1014.55 1014.84 1015.08 1015.30 1015.55 1015.81 1015.98 1015.87 1015.65 1015.53 1015.58 1015.88 1016.25 1016.44 1016.57 1016.43 1016.45 1016.35 1016.37 1016.32 1016.34
995.77 996.46 996.76 997.23 997.09 996.71 996.55 997.05 997.61 998.42 999.05 1000.11 1002.04 1003.45 1001.55 1002.03 1003.17 1004.43 1005.54 1006.85 1008.02 1009.25 1010.56 1011.69 1012.70 1013.31 1013.69 1014.04 1014.31 1014.58 1014.90 1015.29 1015.59 1015.81 1015.72 1015.84 1015.70 1015.50 1015.84 1016.14 1016.29 1016.42 1016.24 1016.16 1016.09 1016.20 1016.15 1016.04 1016.08
995.43 996.13 996.08 996.10 995.73 995.63 995.86 996.46 996.80 996.93 997.41 998.72 999.83 1000.55 1000.30 1000.95 1001.84 1003.51 1004.90 1006.26 1007.59 1008.84 1010.17 1011.38 1012.56 1013.12 1013.46 1013.79 1014.17 1014.54 1014.94 1015.15 1015.27 1015.34 1015.63 1015.81 1015.79 1015.66 1015.67 1015.82 1015.90 1015.98 1015.86 1015.77 1015.73 1015.92 1015.78 1015.65 1015.81
995.35 995.80 995.71 995.61 995.43 995.57 995.86 995.91 996.14 996.60 997.27 997.88 998.35 999.07 999.51 1000.53 1001.07 1002.24 1003.82 1005.73 1007.15 1008.45 1009.70 1011.03 1012.26 1012.95 1013.15 1013.49 1014.00 1014.39 1014.72 1015.00 1015.16 1015.40 1015.63 1015.70 1015.60 1015.63 1015.75 1015.68 1015.78 1015.75 1015.54 1015.46 1015.58 1015.57 1015.47 1015.52 1015.62
994.61 995.58 995.93 995.73 995.67 995.62 995.24 995.41 995.17 996.20 997.19 997.79 998.32 998.74 999.18 999.82 1000.24 1000.48 1002.75 1004.83 1006.50 1007.89 1009.25 1010.45 1011.82 1012.60 1012.85 1013.12 1013.61 1013.93 1014.20 1014.55 1014.94 1015.20 1015.44 1015.57 1015.58 1015.58 1015.62 1015.65 1015.69 1015.60 1015.48 1015.38 1015.42 1015.43 1015.42 1015.39 1015.48
994.19 994.72 995.11 995.42 995.82 995.62 995.61 996.48 996.27 996.74 997.16 997.60 998.12 998.72 999.38 999.66 1000.26 1001.00 1002.41 1004.28 1005.85 1007.26 1008.77 1009.80 1011.23 1012.18 1012.60 1012.79 1013.08 1013.38 1013.84 1014.18 1014.53 1014.87 1015.08 1015.21 1015.27 1015.31 1015.41 1015.48 1015.52 1015.45 1015.32 1015.10 1015.18 1015.19 1015.22 1015.21 1015.27
993.64 994.29 995.06 995.52 995.83 996.21 996.15 996.11 995.84 996.56 997.16 997.64 998.10 998.67 999.24 999.89 1000.45 1001.00 1002.27 1003.83 1005.44 1006.76 1008.09 1009.08 1010.46 1011.54 1012.18 1012.41 1012.74 1013.16 1013.64 1013.93 1014.22 1014.52 1014.72 1014.89 1015.04 1015.10 1015.11 1015.08 1015.09 1015.04 1014.93 1014.79 1014.85 1014.84 1014.86 1014.80 1014.83
Wind_Speed
10 14 13 10 8 11 15 16 16 16 18 13 26 15 15 12 9 15 15 8 16 16 14 13 13 14 16 15 16 17 17 16 15 15 15 15 14 12 12 11 11 11 11 11 9 8 7 6 5
13 18 9 8 5 15 14 18 18 14 9 22 25 24 26 27 26 22 15 16 14 14 15 13 13 14 14 14 14 16 16 16 14 13 14 14 13 12 11 11 11 10 10 9 8 6 6 4 3
16 21 9 7 11 16 15 15 11 14 12 20 24 22 17 21 19 13 17 18 14 15 14 11 13 14 14 13 13 15 15 15 13 13 13 12 13 13 12 11 10 9 8 8 7 5 4 3 2
12 11 11 14 20 19 18 17 17 20 20 21 19 15 25 26 24 22 20 14 15 13 15 12 13 13 13 13 13 14 13 13 13 13 11 12 12 12 10 10 9 8 7 6 6 4 3 3 3
17 4 5 15 19 17 17 19 16 16 19 21 22 20 24 28 23 22 21 18 16 15 14 13 13 14 14 13 13 14 13 13 12 11 10 10 10 10 9 8 7 6 6 5 4 3 2 3 3
4 6 7 15 18 19 17 15 17 20 24 21 21 21 21 23 21 21 18 16 16 16 16 14 13 13 13 13 13 12 12 11 10 9 8 8 8 7 7 6 6 5 3 2 2 2 3 3 4
7 9 10 22 23 15 8 19 16 18 21 20 20 21 19 21 18 22 19 16 18 16 15 11 12 13 13 12 12 12 11 11 9 8 7 7 7 8 8 6 5 3 1 2 3 3 4 6 6
3 4 12 3 23 12 16 16 23 20 17 23 22 15 17 18 21 21 20 13 18 15 12 12 11 10 10 10 13 12 11 10 9 8 7 7 9 10 5 1 6 4 3 3 5 5 5 8 8
33 9 8 8 16 20 19 16 18 17 15 16 12 21 21 19 19 20 23 16 11 11 9 10 11 10 8 11 9 10 10 9 8 7 8 8 8 6 15 13 13 9 7 8 8 9 8 8 9
7 3 14 10 13 22 28 9 16 11 13 14 19 24 21 18 14 21 13 13 14 14 14 12 10 11 8 9 11 9 9 8 7 8 8 7 5 2 11 13 16 10 7 10 11 12 10 7 6
4 11 7 18 14 25 30 17 12 24 15 17 24 24 21 18 14 11 19 15 12 15 11 13 8 8 6 4 7 6 6 6 7 7 5 3 1 4 3 3 5 4 8 6 7 7 4 6 5
6 13 14 10 20 12 19 27 22 25 14 20 21 22 20 18 15 13 11 12 11 7 11 14 12 8 8 8 5 5 6 4 3 5 6 3 3 1 1 1 2 4 2 3 2 3 4 5 4
9 14 8 12 17 19 21 18 22 22 14 20 20 20 18 16 14 12 11 11 11 8 6 11 10 5 3 4 4 1 3 3 5 5 5 4 4 2 2 2 3 3 4 3 2 2 4 5 5
11 11 10 15 12 13 15 16 17 16 18 19 18 17 15 15 14 12 11 12 10 8 7 9 10 7 3 3 4 3 1 0 1 3 4 1 2 4 1 1 4 1 4 2 5 4 4 5 6
9 10 9 11 16 13 19 17 15 16 16 17 17 15 15 13 13 13 11 11 10 9 8 7 7 10 8 6 4 2 5 4 2 2 2 5 6 5 2 1 3 4 3 3 4 6 5 6 6
13 14 12 16 19 5 8 12 14 16 16 16 16 15 14 12 13 11 11 10 11 6 8 8 7 10 9 8 5 4 5 6 2 3 3 7 6 5 3 2 4 4 3 4 5 4 5 5 5
14 13 15 14 21 13 4 11 16 17 16 14 14 14 14 13 14 16 14 10 7 8 8 6 6 9 9 7 6 7 6 5 2 1 2 2 3 1 2 4 3 4 4 5 6 5 4 4 6
17 18 21 13 13 15 14 11 15 17 17 14 14 13 14 15 14 15 16 14 12 11 8 8 4 5 11 6 3 2 2 4 5 3 3 6 3 5 3 4 5 5 4 5 5 5 5 5 6
15 12 18 15 23 26 13 16 18 17 17 16 16 14 15 15 17 15 18 18 16 14 10 8 7 4 4 3 3 3 3 4 4 4 5 5 3 4 3 3 4 5 6 6 6 4 4 5 4
19 9 11 15 17 11 17 17 17 16 17 18 17 16 16 16 16 14 13 10 12 12 14 9 10 7 4 3 4 3 3 4 5 6 6 5 4 5 4 3 4 6 5 6 5 4 3 4 4
15 10 10 13 12 3 8 21 11 15 14 18 17 18 18 17 19 16 15 13 13 11 12 9 9 9 6 6 3 4 4 3 3 2 2 4 5 5 5 4 4 4 4 5 4 4 6 5 4
18 11 18 16 13 11 15 13 19 22 18 16 19 19 19 19 19 18 17 15 14 13 11 12 9 9 8 5 2 5 1 3 1 1 5 3 4 4 4 4 4 4 4 7 4 4 4 3 5
12 16 17 12 12 14 14 10 16 16 17 17 20 21 20 22 21 21 19 16 14 16 13 11 10 7 7 6 3 2 4 4 3 4 4 3 5 5 5 3 5 4 4 6 6 5 4 5 4
18 9 14 8 11 14 16 12 7 10 18 17 9 21 20 21 20 19 19 19 14 15 13 12 11 7 6 6 5 3 0 3 3 4 3 4 3 3 5 6 4 3 4 5 5 5 6 4 5
14 12 8 10 12 13 16 15 11 19 19 20 18 32 20 18 18 15 18 19 15 16 13 12 11 9 8 6 5 3 3 2 2 4 3 2 4 2 6 3 2 3 5 5 5 5 6 5 4
13 16 10 13 12 13 13 10 17 14 19 23 26 29 21 21 18 18 15 17 17 16 14 13 12 10 9 7 6 5 3 2 3 2 4 2 3 3 1 0 2 4 5 4 3 4 4 4 2
16 17 18 18 14 7 6 9 10 8 7 4 7 9 17 14 19 21 18 18 18 16 15 14 13 10 9 8 6 6 5 4 2 1 1 3 1 4 6 3 4 5 6 4 5 4 5 3 3
17 17 13 13 10 11 8 10 10 15 9 10 8 5 6 19 20 21 19 20 18 16 15 15 12 11 10 9 9 7 7 6 4 3 3 3 4 3 4 4 5 5 6 5 6 4 6 5 4
15 12 9 13 11 9 10 4 13 11 9 7 7 7 3 9 10 14 14 18 18 17 16 14 13 12 10 8 8 5 4 5 5 4 4 4 4 3 4 5 5 6 8 6 5 5 7 8 3
20 17 11 9 9 8 10 4 13 11 11 9 6 1 6 2 11 15 14 17 18 17 17 15 15 13 11 9 7 7 5 4 3 4 4 3 4 4 4 5 6 7 8 6 6 5 6 5 6
Wind_Direction
264 233 223 249 228 81 69 44 80 77 65 102 138 85 143 230 122 107 135 109 125 110 126 111 110 108 107 106 105 103 107 98 99 99 96 93 95 94 94 93 92 88 87 88 86 86 82 84 84
295 294 252 265 115 85 66 64 63 76 102 81 84 79 74 74 88 109 116 122 115 129 112 112 115 112 101 104 105 105 107 105 103 101 93 92 96 93 93 89 83 86 87 88 85 88 97 99 85
268 265 257 161 85 87 93 96 91 105 69 79 75 81 92 106 109 100 132 108 101 89 99 116 117 115 111 106 106 106 107 106 108 99 98 98 93 93 92 93 92 92 90 90 89 82 78 62 23
353 329 243 87 88 96 104 101 85 84 78 95 101 72 89 98 105 112 110 120 108 111 108 120 126 126 125 122 118 113 113 114 113 110 109 108 113 110 109 110 111 105 96 88 90 87 69 36 13
107 266 122 111 105 100 94 105 101 96 91 95 99 101 94 104 118 121 131 138 124 118 118 124 127 132 133 135 131 125 120 118 120 117 121 119 116 120 122 118 115 109 100 91 83 68 31 5 347
90 248 139 104 105 45 104 84 97 99 102 105 108 110 106 117 123 134 134 138 127 120 115 125 125 125 129 131 131 127 126 122 124 127 128 131 136 139 142 140 131 121 105 64 33 15 338 315 308
320 273 57 79 84 60 292 118 102 106 120 117 117 116 126 132 137 133 143 130 124 117 118 137 130 131 137 137 138 141 138 139 140 140 146 152 164 179 175 163 158 156 125 314 315 319 278 286 286
218 229 108 236 132 161 215 118 130 133 127 129 131 132 144 131 145 120 120 126 127 129 125 131 136 144 148 146 146 149 150 153 160 163 171 186 207 207 182 292 207 194 217 252 270 270 267 269 276
199 291 100 41 103 147 125 115 87 101 128 152 134 144 136 147 140 127 124 122 124 109 124 125 150 154 148 134 149 150 158 165 170 180 194 215 238 156 98 274 279 228 228 239 242 252 257 267 270
184 160 135 168 133 85 359 313 116 135 131 124 122 126 138 152 157 137 151 124 152 144 163 157 167 140 181 153 156 164 169 182 193 198 175 218 266 113 153 198 231 244 235 249 243 249 249 252 258
336 89 87 105 102 131 174 82 90 351 141 125 132 139 149 150 153 157 143 161 141 154 179 148 130 174 152 120 185 170 180 189 196 205 197 181 339 54 273 129 227 225 229 240 198 237 245 247 228
102 57 74 77 63 360 70 92 114 147 237 126 140 140 148 154 156 160 147 143 134 168 144 133 151 204 145 174 177 190 188 148 178 194 186 203 216 88 299 283 275 255 107 84 30 334 354 333 339
113 86 82 99 134 76 69 67 138 181 184 129 137 146 151 155 160 157 155 153 141 169 162 129 112 90 69 248 17 6 129 197 174 176 195 218 192 198 246 343 320 322 350 334 222 266 307 300 281
102 138 168 100 83 115 114 105 111 110 124 129 143 148 156 160 165 158 166 156 164 183 174 141 127 142 151 283 330 322 171 217 220 144 159 112 197 159 290 308 283 335 294 357 341 6 316 300 294
131 132 127 143 108 62 114 100 113 127 136 147 147 156 158 154 163 160 177 164 173 178 176 143 134 156 163 203 238 260 304 237 224 212 188 212 183 218 217 201 282 297 306 306 260 247 247 254 282
169 165 177 143 103 63 64 115 133 153 154 150 165 157 150 147 155 163 177 174 171 169 122 142 176 181 183 179 189 223 245 277 242 192 243 228 207 207 156 218 254 266 291 301 301 289 281 281 260
206 199 149 130 124 143 146 163 160 166 168 167 165 150 151 162 159 145 133 135 135 135 156 181 192 174 176 190 192 210 228 241 321 287 247 144 84 91 189 255 259 250 256 255 268 282 287 300 301
201 210 160 172 173 147 178 158 171 174 161 167 172 162 164 166 162 154 159 162 191 166 189 173 184 228 175 142 227 250 301 303 280 339 342 324 17 307 299 282 271 275 279 269 271 269 286 270 272
214 227 153 234 157 162 161 175 179 181 158 172 169 175 175 175 152 157 160 171 179 165 141 148 139 116 110 127 198 199 230 236 258 240 247 248 256 251 265 255 245 250 244 251 257 268 275 295 290
240 214 213 205 153 186 159 174 188 186 170 172 177 181 185 168 150 161 147 173 153 150 152 156 147 141 176 190 182 231 232 227 211 231 206 215 243 169 202 263 336 322 344 336 301 272 310 305 299
251 243 240 210 148 167 216 155 129 264 194 172 182 182 182 172 164 168 167 176 162 150 149 151 148 164 180 186 186 201 250 246 284 346 77 70 29 347 344 348 324 312 308 288 343 0 312 293 305
232 212 262 239 177 210 177 230 168 216 190 194 189 182 185 178 171 171 177 179 171 154 159 150 160 167 170 134 312 99 356 282 68 268 85 22 9 23 322 286 283 359 345 305 317 337 320 303 287
236 221 231 239 245 233 234 232 153 181 192 199 201 186 191 179 181 177 182 176 174 156 161 148 161 139 123 129 49 32 29 14 14 39 31 348 265 251 239 255 32 347 315 322 325 316 301 296 266
222 261 202 228 255 254 227 222 150 185 207 214 222 201 193 185 183 182 176 168 173 152 157 156 137 136 143 146 156 152 153 49 354 22 331 281 0 286 86 54 34 318 292 309 325 306 298 295 294
206 208 204 223 228 242 232 222 238 184 215 206 160 239 196 189 183 185 175 165 165 155 160 142 151 162 161 175 158 159 129 100 244 215 264 12 287 30 81 51 313 322 306 296 293 307 292 287 318
187 223 218 208 229 230 206 184 223 190 176 194 198 215 194 189 182 178 177 163 157 156 156 155 164 170 173 173 150 104 104 253 217 39 43 344 339 329 35 309 283 296 288 276 302 297 300 299 345
183 236 250 263 270 253 189 195 220 158 161 152 178 215 189 191 184 177 172 156 158 163 161 153 165 180 177 165 150 165 175 195 296 44 13 268 0 329 59 339 298 285 281 285 286 281 318 358 345
220 205 232 252 266 285 245 233 217 154 154 169 184 226 233 192 190 182 176 160 161 166 162 153 168 185 182 167 167 195 182 175 189 187 230 263 263 270 285 291 290 310 305 293 291 296 304 332 332
210 230 217 251 232 266 261 72 101 137 152 143 160 181 200 255 201 179 175 156 162 167 165 161 170 184 184 186 175 160 157 185 178 193 221 239 264 267 272 274 276 283 288 280 281 269 255 267 293
230 200 232 247 254 273 296 298 136 139 146 165 119 175 138 323 293 167 175 159 163 170 168 170 175 182 193 180 173 160 169 193 207 196 225 248 263 264 268 263 269 280 284 280 298 282 306 306 290